| time (UTC) | temp C | wind direction | speed KPH | gust KPH | rain 1hr cm | rain 24hr cm | rain mn cm | humidity % | barometer mb |
| 20260904051608 | 10 | 0 | 0.0 | 0.0 | 0.00 | 0.64 | 0.61 | 98 | 1010.6 |
| 20260904050100 | 10 | 0 | 0.0 | 0.0 | 0.00 | 0.64 | 0.61 | 98 | 1010.6 |
| 20260904044608 | 10 | 0 | 0.0 | 0.0 | 0.00 | 0.66 | 0.61 | 98 | 1010.5 |
| 20260904043103 | 10 | 0 | 0.0 | 1.6 | 0.00 | 0.66 | 0.61 | 98 | 1010.6 |
| 20260904041608 | 10 | 0 | 0.0 | 0.0 | 0.00 | 0.66 | 0.61 | 98 | 1010.7 |
| 20260904040110 | 10 | 0 | 0.0 | 3.2 | 0.00 | 0.66 | 0.61 | 98 | 1010.7 |
| 20260904034603 | 11 | 0 | 0.0 | 0.0 | 0.00 | 0.74 | 0.61 | 97 | 1010.6 |
| 20260904033102 | 11 | 0 | 0.0 | 0.0 | 0.00 | 0.74 | 0.61 | 97 | 1010.3 |
| 20260904031612 | 11 | 0 | 0.0 | 4.8 | 0.00 | 0.74 | 0.61 | 97 | 1010.1 |
| 20260904030101 | 11 | 0 | 0.0 | 3.2 | 0.00 | 0.74 | 0.61 | 97 | 1010.2 |
| 20260904024606 | 12 | 0 | 0.0 | 0.0 | 0.00 | 0.74 | 0.61 | 97 | 1010.0 |
| 20260904023104 | 12 | 0 | 0.0 | 0.0 | 0.00 | 0.74 | 0.61 | 97 | 1009.9 |
| 20260904021608 | 12 | 0 | 0.0 | 0.0 | 0.00 | 0.74 | 0.61 | 97 | 1010.0 |
| 20260904020105 | 12 | 0 | 0.0 | 0.0 | 0.00 | 0.74 | 0.61 | 97 | 1010.1 |
| 20260904014624 | 12 | 0 | 0.0 | 0.0 | 0.00 | 0.84 | 0.61 | 98 | 1010.1 |
| 20260904013101 | 12 | 0 | 0.0 | 1.6 | 0.00 | 0.84 | 0.61 | 97 | 1010.2 |
| 20260904011603 | 12 | 228 | 0.0 | 1.6 | 0.03 | 0.84 | 0.61 | 97 | 1010.2 |
| 20260904010101 | 12 | 0 | 0.0 | 0.0 | 0.03 | 0.84 | 0.61 | 97 | 1010.2 |
| 20260904004557 | 12 | 0 | 0.0 | 0.0 | 0.15 | 1.47 | 0.61 | 97 | 1010.4 |
| 20260904003104 | 12 | 0 | 0.0 | 0.0 | 0.18 | 1.47 | 0.61 | 96 | 1010.4 |
| 20260904001602 | 12 | 0 | 0.0 | 3.2 | 0.15 | 1.47 | 0.58 | 96 | 1010.4 |
| 20260904000120 | 12 | 229 | 1.6 | 14.5 | 0.15 | 1.47 | 0.58 | 94 | 1010.4 |
| 20260903234558 | 13 | 262 | 6.4 | 24.1 | 0.00 | 1.32 | 0.43 | 92 | 1010.7 |
| 20260903233105 | 13 | 360 | 1.6 | 4.8 | 0.00 | 1.32 | 0.43 | 90 | 1010.1 |
| 20260903231600 | 14 | 360 | 0.0 | 4.8 | 0.00 | 1.32 | 0.43 | 93 | 1010.0 |
| 20260903230105 | 13 | 9 | 1.6 | 6.4 | 0.00 | 1.32 | 0.43 | 92 | 1010.2 |
| 20260903224627 | 13 | 0 | 0.0 | 3.2 | 0.03 | 1.40 | 0.43 | 91 | 1010.3 |
| 20260903223104 | 13 | 0 | 0.0 | 3.2 | 0.05 | 1.40 | 0.43 | 95 | 1010.5 |
| 20260903221559 | 13 | 0 | 1.6 | 6.4 | 0.05 | 1.40 | 0.43 | 96 | 1010.4 |
| 20260903220107 | 12 | 0 | 1.6 | 6.4 | 0.05 | 1.40 | 0.43 | 94 | 1010.4 |
| 20260903214613 | 13 | 143 | 6.4 | 14.5 | 0.03 | 1.45 | 0.41 | 86 | 1010.7 |
| 20260903213114 | 13 | 150 | 3.2 | 17.7 | 0.00 | 1.42 | 0.38 | 89 | 1010.8 |
| 20260903211610 | 13 | 125 | 1.6 | 8.0 | 0.00 | 1.42 | 0.38 | 91 | 1010.7 |
| 20260903210125 | 13 | 120 | 1.6 | 9.7 | 0.00 | 1.42 | 0.38 | 96 | 1010.7 |
| 20260903204606 | 13 | 0 | 0.0 | 4.8 | 0.03 | 1.88 | 0.38 | 97 | 1010.6 |
| 20260903203113 | 12 | 202 | 1.6 | 9.7 | 0.08 | 1.88 | 0.38 | 98 | 1010.8 |
| 20260903201600 | 12 | 100 | 3.2 | 14.5 | 0.13 | 1.88 | 0.38 | 97 | 1011.0 |
| 20260903200104 | 12 | 99 | 3.2 | 11.3 | 0.13 | 1.88 | 0.38 | 95 | 1010.6 |
| 20260903194602 | 12 | 0 | 3.2 | 11.3 | 0.10 | 2.08 | 0.36 | 92 | 1011.0 |
| 20260903193100 | 13 | 228 | 1.6 | 14.5 | 0.05 | 2.03 | 0.30 | 93 | 1010.9 |
| 20260903191603 | 13 | 0 | 0.0 | 4.8 | 0.00 | 1.98 | 0.25 | 93 | 1010.5 |
| 20260903190104 | 13 | 344 | 1.6 | 4.8 | 0.00 | 1.98 | 0.25 | 95 | 1010.4 |
| 20260903184559 | 13 | 0 | 0.0 | 4.8 | 0.00 | 2.24 | 0.25 | 96 | 1010.3 |
| 20260903183106 | 13 | 330 | 0.0 | 4.8 | 0.00 | 2.24 | 0.25 | 97 | 1010.6 |
| 20260903181609 | 13 | 330 | 3.2 | 6.4 | 0.00 | 2.24 | 0.25 | 98 | 1010.5 |
| 20260903180104 | 12 | 360 | 3.2 | 6.4 | 0.00 | 2.24 | 0.25 | 99 | 1010.4 |
| 20260903174601 | 12 | 0 | 0.0 | 0.0 | 0.03 | 2.31 | 0.25 | 99 | 1010.6 |
| 20260903173058 | 12 | 0 | 0.0 | 3.2 | 0.03 | 2.31 | 0.25 | 99 | 1010.7 |
| 20260903171614 | 11 | 0 | 0.0 | 1.6 | 0.03 | 2.31 | 0.25 | 99 | 1010.8 |
| 20260903170059 | 11 | 0 | 0.0 | 0.0 | 0.05 | 2.31 | 0.25 | 99 | 1010.6 |
| 20260903164614 | 11 | 0 | 0.0 | 0.0 | 0.03 | 2.29 | 0.23 | 99 | 1010.5 |
| 20260903163105 | 11 | 0 | 0.0 | 0.0 | 0.03 | 2.29 | 0.23 | 99 | 1010.8 |
| 20260903161602 | 10 | 0 | 0.0 | 1.6 | 0.05 | 2.29 | 0.23 | 98 | 1010.9 |
| 20260903160129 | 10 | 119 | 1.6 | 6.4 | 0.05 | 2.26 | 0.20 | 98 | 1010.9 |
| 20260903154611 | 10 | 113 | 1.6 | 6.4 | 0.05 | 2.26 | 0.20 | 98 | 1010.9 |
| 20260903153108 | 10 | 0 | 0.0 | 0.0 | 0.05 | 2.26 | 0.20 | 98 | 1010.9 |
| 20260903151603 | 10 | 0 | 0.0 | 0.0 | 0.03 | 2.24 | 0.18 | 97 | 1010.8 |
| 20260903150108 | 10 | 0 | 0.0 | 4.8 | 0.00 | 2.21 | 0.15 | 97 | 1010.7 |
| 20260903144606 | 10 | 117 | 3.2 | 11.3 | 0.00 | 2.21 | 0.15 | 96 | 1010.5 |
| 20260903143110 | 10 | 84 | 8.0 | 22.5 | 0.00 | 2.21 | 0.15 | 95 | 1010.4 |
| 20260903141605 | 10 | 122 | 8.0 | 16.1 | 0.00 | 2.21 | 0.15 | 96 | 1010.4 |
| 20260903140109 | 10 | 116 | 3.2 | 9.7 | 0.00 | 2.21 | 0.15 | 98 | 1010.2 |
| 20260903134600 | 10 | 96 | 4.8 | 16.1 | 0.00 | 2.21 | 0.15 | 98 | 1010.0 |
| 20260903133108 | 10 | 107 | 1.6 | 9.7 | 0.00 | 2.21 | 0.15 | 98 | 1010.2 |
| 20260903131604 | 10 | 109 | 3.2 | 12.9 | 0.00 | 2.21 | 0.15 | 99 | 1010.0 |
| 20260903130105 | 9 | 118 | 3.2 | 6.4 | 0.00 | 2.21 | 0.15 | 98 | 1010.1 |
| 20260903124607 | 9 | 100 | 3.2 | 9.7 | 0.00 | 2.21 | 0.15 | 98 | 1010.0 |
| 20260903123102 | 9 | 107 | 3.2 | 11.3 | 0.00 | 2.21 | 0.15 | 98 | 1010.1 |
| 20260903121606 | 9 | 105 | 3.2 | 6.4 | 0.00 | 2.21 | 0.15 | 98 | 1010.2 |
| 20260903120106 | 10 | 132 | 4.8 | 11.3 | 0.00 | 2.21 | 0.15 | 98 | 1010.2 |
| 20260903114605 | 10 | 149 | 4.8 | 17.7 | 0.00 | 2.21 | 0.15 | 98 | 1010.3 |
| 20260903113057 | 10 | 119 | 6.4 | 14.5 | 0.00 | 2.21 | 0.15 | 99 | 1010.3 |
| 20260903111604 | 10 | 111 | 6.4 | 19.3 | 0.00 | 2.21 | 0.15 | 99 | 1010.3 |
| 20260903110104 | 10 | 102 | 6.4 | 14.5 | 0.00 | 2.21 | 0.15 | 99 | 1010.2 |
| 20260903104604 | 10 | 96 | 4.8 | 14.5 | 0.00 | 2.21 | 0.15 | 99 | 1010.4 |
| 20260903103102 | 10 | 87 | 1.6 | 17.7 | 0.00 | 2.21 | 0.15 | 99 | 1010.3 |
| 20260903101611 | 10 | 108 | 1.6 | 11.3 | 0.03 | 2.21 | 0.15 | 99 | 1010.1 |
| 20260903100104 | 10 | 0 | 3.2 | 12.9 | 0.03 | 2.21 | 0.15 | 99 | 1010.1 |
| 20260903094607 | 10 | 102 | 1.6 | 11.3 | 0.03 | 2.21 | 0.15 | 99 | 1010.1 |
| 20260903093114 | 10 | 0 | 0.0 | 12.9 | 0.03 | 2.21 | 0.15 | 99 | 1010.0 |
| 20260903091602 | 10 | 109 | 1.6 | 12.9 | 0.00 | 2.18 | 0.13 | 99 | 1010.0 |
| 20260903084601 | 10 | 105 | 3.2 | 12.9 | 0.05 | 2.18 | 0.13 | 99 | 1010.1 |
| 20260903083059 | 10 | 102 | 1.6 | 17.7 | 0.08 | 2.18 | 0.13 | 99 | 1010.2 |
| 20260903081601 | 10 | 107 | 4.8 | 12.9 | 0.08 | 2.18 | 0.13 | 99 | 1010.3 |
| 20260903080107 | 10 | 107 | 6.4 | 20.9 | 0.10 | 2.16 | 0.10 | 98 | 1010.3 |
| 20260903074601 | 10 | 142 | 4.8 | 17.7 | 0.10 | 2.13 | 0.08 | 98 | 1010.5 |
| 20260903073100 | 11 | 114 | 6.4 | 19.3 | 0.08 | 2.11 | 0.05 | 99 | 1010.3 |
| 20260903071611 | 11 | 0 | 1.6 | 11.3 | 0.08 | 2.11 | 0.05 | 99 | 1010.4 |
| 20260903070107 | 11 | 0 | 1.6 | 12.9 | 0.03 | 2.06 | 0.00 | 99 | 1010.3 |
| 20260903064600 | 11 | 0 | 1.6 | 11.3 | 0.00 | 2.03 | 2.03 | 99 | 1010.2 |
| 20260903063127 | 11 | 106 | 0.0 | 12.9 | 0.00 | 2.03 | 2.03 | 98 | 1010.0 |
| 20260903061608 | 11 | 105 | 0.0 | 11.3 | 0.00 | 2.03 | 2.03 | 99 | 1010.0 |
| 20260903060117 | 11 | 0 | 0.0 | 9.7 | 0.00 | 2.03 | 2.03 | 99 | 1010.1 |
| 20260903054609 | 11 | 0 | 0.0 | 9.7 | 0.00 | 2.03 | 2.03 | 98 | 1010.3 |
| 20260903053105 | 11 | 0 | 0.0 | 11.3 | 0.00 | 2.03 | 2.03 | 98 | 1010.1 |